This is the latest recevied weather packets stored in our database for station/object KE8WAY. If no packets are shown the sender has not sent any weather packets the latest 10 day(s).
| Time | Temp. | Humidity | Pressure | Rain* | Wind** | Luminosity | Snow |
|---|---|---|---|---|---|---|---|
| 1777925716 | 24.44° C | 42% | 1001 hPa | 0 mm | - | 667 W/m² | - |
| 1777925414 | 23.89° C | 45% | 1001.3 hPa | 0 mm | - | 275 W/m² | - |
| 1777925110 | 24.44° C | 44% | 1001.2 hPa | 0 mm | - | 360 W/m² | - |
| 1777924807 | 23.89° C | 45% | 1001.3 hPa | 0 mm | - | 544 W/m² | - |
| 1777924503 | 23.89° C | 45% | 1001.2 hPa | 0 mm | - | 229 W/m² | - |
| 1777924200 | 23.33° C | 43% | 1001.5 hPa | 0 mm | - | 738 W/m² | - |
| 1777923895 | 23.89° C | 41% | 1001.5 hPa | 0 mm | - | 230 W/m² | - |
| 1777923591 | 23.89° C | 41% | 1001.6 hPa | 0 mm | - | 641 W/m² | - |
| 1777923289 | 24.44° C | 40% | 1001.8 hPa | 0 mm | - | 636 W/m² | - |
| 1777922988 | 24.44° C | 39% | 1002 hPa | 0 mm | - | 668 W/m² | - |
| 1777922684 | 23.89° C | 40% | 1001.8 hPa | 0 mm | - | 649 W/m² | - |
| 1777922383 | 24.44° C | 37% | 1002 hPa | 0 mm | - | 658 W/m² | - |
| 1777922081 | 23.89° C | 35% | 1002 hPa | 0 mm | - | 665 W/m² | - |
| 1777921776 | 23.89° C | 34% | 1002.4 hPa | 0 mm | - | 665 W/m² | - |
| 1777921472 | 23.89° C | 33% | 1002.3 hPa | 0 mm | - | 665 W/m² | - |
| 1777921169 | 23.33° C | 33% | 1002.2 hPa | 0 mm | - | 643 W/m² | - |
| 1777920866 | 23.89° C | 33% | 1002.3 hPa | 0 mm | - | 654 W/m² | - |
| 1777920562 | 24.44° C | 35% | 1002.5 hPa | 0 mm | - | 672 W/m² | - |
| 1777920258 | 23.89° C | 33% | 1002.5 hPa | 0 mm | - | 675 W/m² | - |
| 1777919954 | 23.89° C | 36% | 1002.9 hPa | 0 mm | - | 680 W/m² | - |
| 1777919652 | 23.89° C | 34% | 1002.6 hPa | 0 mm | - | 676 W/m² | - |
| 1777919349 | 23.89° C | 36% | 1002.5 hPa | 0 mm | - | 679 W/m² | - |
| 1777919046 | 23.33° C | 34% | 1003.1 hPa | 0 mm | - | 686 W/m² | - |
| 1777918743 | 23.33° C | 34% | 1003.2 hPa | 0 mm | - | 676 W/m² | - |
| 1777918440 | 23.89° C | 32% | 1003.3 hPa | 0 mm | - | 689 W/m² | - |
* Rain latest hour (hover to see other rain measurements)
** Current wind speed in m/s (hover to see current wind gust speed)